Regional Weather Roundup
Issued by NWS

Home | Current Version | Previous Version | Text Only | Print | Product List | Glossary Off
Versions: 1 2 3 4 5 6 7 8 9 10 11 12 13 14 15 16 17 18 19 20 21 22 23 24 25 26 27 28 29 30 31 32 33 34 35 36 37 38 39 40 41 42 43 44 45 46 47 48 49 50

000
ASUS43 KMKX 131320
RWRWI

WISCONSIN REGIONAL WEATHER ROUNDUP
NATIONAL WEATHER SERVICE MILWAUKEE/SULLIVAN WI
700 AM CST SAT FEB 13 2016

NOTE: "FAIR" INDICATES FEW OR NO CLOUDS BELOW 12,000 FEET WITH NO
SIGNIFICANT WEATHER AND/OR OBSTRUCTIONS TO VISIBILITY.

WIZ001-002-006>008-014>016-023>028-131400-
NORTHWEST WISCONSIN

CITY           SKY/WX    TMP DP  RH WIND       PRES   REMARKS
SUPERIOR ARPT  CLOUDY   -13 -20  71 W5        30.63S WCI -25
ASHLAND        CLOUDY   -12 -15  86 SW3       30.56F
HAYWARD        CLOUDY   -19 -23  81 S3        30.54F
SIREN          PTCLDY   -18 -24  73 CALM      30.60S
CUMBERLAND     PTCLDY   -18 -24  76 SW5       30.55S WCI -31
RICE LAKE      PTCLDY   -13 -19  74 NW3       30.59S
CHETEK         PTCLDY   -14 -18  80 CALM      30.58S
LADYSMITH      CLOUDY   -14 -21  72 CALM      30.55S
EAU CLAIRE     CLOUDY   -10 -18  67 CALM      30.60S
MENOMONIE      CLOUDY    -9 -19  60 SW5       30.62R WCI -20
NEW RICHMOND   CLOUDY   -13 -19  75 CALM      30.60F
OSCEOLA        CLOUDY    -8 -15  72 CALM      30.65S
$$

WIZ003>005-009-010-017-018-131400-
NORTH CENTRAL WISCONSIN

CITY           SKY/WX    TMP DP  RH WIND       PRES   REMARKS
MANITOWISH WTR PTCLDY   -11 -15  83 W5        30.41F WCI -23
ARBOR VITAE    CLOUDY    -8 -13  78 CALM      30.42S
WOODRUFF       CLOUDY    -8 -13  78 CALM      30.42S
RHINELANDER    CLOUDY   -13 -17  82 W7        30.42S WCI -29
EAGLE RIVER    FLURRIES  -8 -14  73 W5        30.39F WCI -19
LAND O LAKES   LGT SNOW  -5 -10  80 SW3       30.39S
PHILLIPS       CLOUDY   -16 -20  81 CALM      30.47S
TOMAHAWK       CLOUDY   -13 -17  80 W3        30.46S
MEDFORD        CLOUDY   -14 -19  76 W5        30.48R WCI -26
MERRILL        CLOUDY   -10 -15  78 NW3       30.49S
$$

WIZ029-030-035-036-043>047-131400-
CENTRAL WISCONSIN

CITY           SKY/WX    TMP DP  RH WIND       PRES   REMARKS
WAUSAU         CLOUDY    -9 -15  75 NW6       30.49S WCI -22
MOSINEE        CLEAR     -9 -15  77 NW3       30.51S
MARSHFIELD     CLOUDY   -10 -20  61 NW8       30.51R WCI -26
STEVENS POINT  CLOUDY   -10 -17  69 W3        30.53R
WAUPACA        PTCLDY    -3 -14  61 NW7       30.54F WCI -17
WAUTOMA        CLOUDY    -8 -18  62 W9        30.57R WCI -25
WISC RAPIDS    CLOUDY    -9 -18  64 NW6       30.56S WCI -22
CAMP DOUGLAS   PTCLDY   -12 -19  70 W8        30.58R WCI -28
$$

WIZ011>013-019>022-031-037>040-048>050-131400-
NORTHEAST WISCONSIN

CITY           SKY/WX    TMP DP  RH WIND       PRES   REMARKS
ANTIGO         CLOUDY   -12 -16  82 NW8       30.43S WCI -29
SHAWANO        PTCLDY    -3 -12  67 CALM      30.53R
OCONTO         CLEAR     -6 -13  72 W8        30.52R WCI -22
STURGEON BAY   CLEAR     -6 -11  77 W14G20    30.49R WCI -26
GREEN BAY      CLEAR     -5 -13  68 NW13      30.52R WCI -24
MANITOWOC      CLEAR     -3 -12  65 NW12      30.52R WCI -21
APPLETON       CLEAR     -6 -17  59 W14       30.50R WCI -26
CLINTONVILLE   CLEAR     -4 -13  65 NW8       30.53R WCI -19
OSHKOSH        CLOUDY    -6 -15  65 W7        30.53R WCI -20
$$

WIZ032>034-041-042-053>061-131400-
SOUTHWEST WISCONSIN

CITY           SKY/WX    TMP DP  RH WIND       PRES   REMARKS
LA CROSSE      CLOUDY    -7 -17  62 N6        30.64R WCI -20
SPARTA         CLOUDY   -15 -20  78 CALM      30.62S
VIROQUA        CLOUDY    -8 -17  63 N7        30.54S WCI -23
BOSCOBEL       CLOUDY   -10 -15  78 CALM      30.63R
PRAIRIE DU CHI CLOUDY    -4 -14  62 CALM      30.64R
PLATTEVILLE    CLOUDY    -3 -12  64 NW5       30.58R WCI -13
$$

WIZ056-057-062-063-064-067-068-131400-
SOUTH CENTRAL WISCONSIN

CITY           SKY/WX    TMP DP  RH WIND       PRES   REMARKS
REEDSBURG      CLOUDY    -6 -16  61 NW5       30.58R WCI -17
BARABOO/DELLS  CLOUDY    -5 -17  57 NW7       30.56S WCI -19
LONE ROCK      CLOUDY    -6 -16  61 W5        30.61R WCI -17
MINERAL POINT  CLOUDY     0 -15  50 CALM      30.55R
MADISON        CLOUDY    -3 -15  56 NW7       30.56S WCI -16
MIDDLETON      CLOUDY    -2 -13  60 NW5       30.57R WCI -12
WATERTOWN      CLEAR     -3 -12  63 NW5       30.55R WCI -13
MONROE         CLOUDY     0 -13  55 NW3       30.54S
JANESVILLE     NOT AVBL
$$

WIZ051-052-058>065-066-070>072-131400-
SOUTHEAST WISCONSIN

CITY           SKY/WX    TMP DP  RH WIND       PRES   REMARKS
MILWAUKEE      PTCLDY     0 -13  54 NW12      30.54R WCI -17
WAUKESHA       CLEAR     -4 -15  59 NW15      30.53S WCI -25
MILWAUKEE/TIMM CLEAR      0 -15  50 W7        30.55R WCI -13
RACINE         CLEAR      1 -13  51 NW8       30.55R WCI -13
BURLINGTON     CLEAR     -2 -13  59 NW10      30.54S WCI -19
KENOSHA        CLEAR      1 -11  57 NW10      30.54R WCI -15
FOND DU LAC    CLOUDY    -4 -15  59 NW12      30.53R WCI -22
SHEBOYGAN      CLEAR     -3 -13  62 W12G20    30.52R WCI -21
WEST BEND      CLEAR     -2 -15  55 W3        30.52R
JUNEAU         CLOUDY    -5 -15  63 W6        30.55R WCI -18
$$

LSZ147-162-131400-
LAKE SUPERIOR

STATION/POSITION TIME  TEMP    WIND        PRES    WAVE
                       AIR SEA DIR/SP/G            HT/PER
                 (UTC) (F)     (DEG/KT/KT) (MB)    (FT/S)
DEVILS ISLAND    1200    0     340/ 14/ 18 1037.2S
SAXON HARBOR     1240    1                 1034.2S
$$

LMZ867-665-643>646-131400-
LAKE MICHIGAN

STATION/POSITION TIME  TEMP    WIND        PRES    WAVE
                       AIR SEA DIR/SP/G            HT/PER
                 (UTC) (F)     (DEG/KT/KT) (MB)    (FT/S)
CHAMBERS ISLAND  1200   -1     290/  6/ 13 1031.2S
KEWAUNEE LAKESHO 1300   -3     300/  9/ 13 1031.9R
SHEBOYGAN LAKESH 1300   -1     290/ 15/ 18 1035.6R
PORT WASHINGTON  1200    0     300/  7/ 14 1034.5R
MILWAUKEE LAKESH 1210    2     300/ 10/ 12   N/A
KENOSHA   LAKESH 1200    2     300/ 10/ 16 1033.5S
$$

TC  - TEMPERATURE IN CELSIUS
VSB - VISIBILITY IN STATUTE MILES
WCI - WIND CHILL INDEX
HX  - HEAT INDEX




USA.gov is the U.S. government's official web portal to all federal, state and local government web resources and services.